Hourly Data Report for March 26, 2004

TORONTO CITY
ONTARIO

43°40'00.000" N
79°24'00.000" W
112.50 m
6158355
71508
XTO

Download Data

Hourly Data (March 2004)
Hourly Data Report for March 26, 2004
TIME
LST
Temp Definition
°C
Dew Point Definition
°C
Rel Hum Definition
%
Precip. Amount Definition
mm

Wind Dir Definition
10's deg

Wind Spd Definition
km/h
Visibility Definition
km
Stn Press Definition
kPa
Hmdx Definition


Wind Chill Definition


Weather Definition


00:00 10.5 7.9 84   LegendMM LegendMM LegendMM 101.26     LegendNANA
01:00 10.5 8.3 86   LegendMM LegendMM LegendMM 101.22     LegendNANA
02:00 9.9 7.9 87   LegendMM LegendMM LegendMM 101.16     LegendNANA
03:00 9.2 7.7 90   LegendMM LegendMM LegendMM 101.12     LegendNANA
04:00 10.4 7.8 84   LegendMM LegendMM LegendMM 101.12     LegendNANA
05:00 10.4 7.1 80   LegendMM LegendMM LegendMM 101.10     LegendNANA
06:00 9.8 7.1 83   LegendMM LegendMM LegendMM 101.08     LegendNANA
07:00 9.0 8.1 94   LegendMM LegendMM LegendMM 101.07     LegendNANA
08:00 9.5 8.9 96   LegendMM LegendMM LegendMM 101.02     LegendNANA
09:00 9.8 9.5 98   LegendMM LegendMM LegendMM 100.96     LegendNANA
10:00 10.8 10.4 97   LegendMM LegendMM LegendMM 100.88     LegendNANA
11:00 12.0 10.4 90   LegendMM LegendMM LegendMM 100.82     LegendNANA
12:00 13.0 10.7 86   LegendMM LegendMM LegendMM 100.75     LegendNANA
13:00 13.6 11.0 84   LegendMM LegendMM LegendMM 100.68     LegendNANA
14:00 12.6 10.0 84   LegendMM LegendMM LegendMM 100.64     LegendNANA
15:00 12.6 10.0 84   LegendMM LegendMM LegendMM 100.63     LegendNANA
16:00 13.8 11.2 84   LegendMM LegendMM LegendMM 100.61     LegendNANA
17:00 15.2 12.0 81   LegendMM LegendMM LegendMM 100.63     LegendNANA
18:00 13.2 11.1 87   LegendMM LegendMM LegendMM 100.68     LegendNANA
19:00 13.7 11.9 89   LegendMM LegendMM LegendMM 100.72     LegendNANA
20:00 13.0 12.4 96   LegendMM LegendMM LegendMM 100.77     LegendNANA
21:00 13.0 12.5 97   LegendMM LegendMM LegendMM 100.81     LegendNANA
22:00 13.9 13.6 98   LegendMM LegendMM LegendMM 100.84     LegendNANA
23:00 14.1 13.3 95   LegendMM LegendMM LegendMM 100.85     LegendNANA

Notes on Data Quality.

Legend

  • E = Estimated
  • M = Missing
  • NA = Not Available*
  • [empty] = Indicates an unobserved value
Date modified: